DELTA 1 DEB, 10251

Orbit data source: Space-Track

DELTA 1 DEB, 10251 is space debris in LEO originally from a launch on Thu, 14 Jul 1977 UTC launched from the Air Force Eastern Test Range (AFETR). Debris objects in space refer to the collection of defunct objects orbiting the Earth. Examples of debris include non-operational satellites, rocket bodies, and fragments generated from explosions, collisions, or faulty payload assembly.

Loading next visibility...
Identifier
10251, 1977-065CC
Orbit
LEO
Country
Flag of USUS
Related business
Manufacturer
Unknown
Mission
Spacecraft
Bus & Motor
Unknown
Mass
Unknown
Launch date (UTC)
1977-07-14 (48 years ago)
Launch vehicle
Unknown
Launch site
Air Force Eastern Test Range (AFETR)
Object type
Payload
Rocket body
Debris
Shape & HBR
Unknown shape, 0.1 m
Radar Cross Section
Small (<0.1 m²)

Expand to show TLE details & history
Last TLE update: 2 days ago

TLE from 2 days ago
0 DELTA 1 DEB
1 10251U 77065CC  25302.51126718  .00006222  00000-0  84340-3 0  9991
2 10251  28.9780 352.6510 0673220 236.5296 116.9154 13.84056130385262
Epoch: 2025-10-29T12:16Z
TLE epoch observation values (Epoch: 2025-10-29T12:16:13.484Z)
Latitude
-0.00001°
Longitude
130.51144°
Altitude
1,196.357 km
Speed
7.134 km/s
True Right ascension
23h 30m 36s
True Declination
0° 00' 00"
Sunlit
Object was in full shadow at epoch
Visualization orbit readout
Latitude
Unknown
Longitude
Unknown
Altitude
Unknown
Speed
Unknown
Apparent Right ascension
Unknown
Apparent Declination
Unknown
Sunlit
N/A
Visualization observer readout
Local Sidereal Time
21:05:30
Azimuth
Unknown
Elevation
Unknown
Doppler factor
Unknown
Orbital elements
Apogee altitude
1,447.04 km
Perigee altitude
459.884 km
Semi-major axis
7,331.599 km
Eccentricity
0.06732
Inclination
28.978°
RAAN
352.651°
Arg. of periapsis
236.5296°
True anomaly
123.52686°
Mean anomaly
116.9154°
Eccentric anomaly
120.24753°
Mean motion
3.45736 °/min
Orbital period
104.13 mins
BSTAR
0.0008434
Loading maneuver chart data...
Computing Atmospheric mass density...

Documentation

Showing up to 5 results
|